Zanzibar, Tanzania

7:50 PM EAT on April 26, 2017 (GMT +0300)
Zanzibar

Weather History for HTZA - December, 2012

Change the Weather History Date:

Tuesday, December 11, 2012

  Actual Average Record
Temperature  
Mean Temperature 86 °F -  
Max Temperature 94 °F 84 °F 94 °F (2012)
Min Temperature 79 °F 77 °F 44 °F (2005)
Cooling Degree Days 22    
Growing Degree Days 36 (Base 50)    
Moisture  
Dew Point 77 °F    
Average Humidity 76    
Maximum Humidity 94    
Minimum Humidity 50    
Precipitation  
Precipitation 0.00 in 0.20 in - ()
Sea Level Pressure  
Sea Level Pressure 29.77 in    
Wind  
Wind Speed 6 mph ()    
Max Wind Speed 22 mph    
Max Gust Speed -    
Visibility 10.5 miles    
Events      
Averages and records for this station are not official NWS values.
T = Trace of Precipitation, MM = Missing Value Source: Averaged Metar Reports

Daily Weather History Graph

Daily Weather History Graph

Search for Another Location

Airport or City:

Trip Planner

Search our weather history database for the weather conditions in past years. The results will help you decide how hot, cold, wet, or windy it might be!

Date:

Astronomy

Dec. 11, 2012 Rise Set
Actual Time 6:02 AM EAT 6:30 PM EAT
Civil Twilight 5:39 AM EAT 6:53 PM EAT
Nautical Twilight 5:12 AM EAT 7:20 PM EAT
Astronomical Twilight 4:46 AM EAT 7:47 PM EAT
Moon 3:51 AM EAT (12/11) 4:37 PM EAT (12/11)
Length of Visible Light 13h 14m
Length of Day
12h 28m
Waning Crescent, 6% of the Moon is Illuminated
Dec 11
Waning Crescent
Dec 13
New
Dec 20
First Quarter
Dec 28
Full
Jan 5
Last Quarter

Hourly Weather History & Observations

Time (EAT) Temp. Heat Index Dew Point Humidity Pressure Visibility Wind Dir Wind Speed Gust Speed Precip Events Conditions
12:00 AM 80 °F - 76 °F 86% 29.80 in 19 mi Calm Calm - -   Scattered Clouds
3:00 AM 78 °F - 76 °F 92% 29.77 in 19 mi Calm Calm - -   Scattered Clouds
6:00 AM 80 °F - 78 °F 93% 29.79 in 12 mi Calm Calm - -   Partly Cloudy
6:00 AM 80.6 °F 88.1 °F 78.8 °F 94% 29.77 in 6.2 mi Calm Calm - N/A   Partly Cloudy
8:00 AM 84.2 °F 94.1 °F 77.0 °F 79% 29.83 in 6.2 mi North 9.2 mph - N/A   Partly Cloudy
9:00 AM 86 °F - 77 °F 68% 29.85 in 19 mi North 11.5 mph - -   Mostly Cloudy
9:00 AM 86.0 °F 96.9 °F 77.0 °F 74% 29.83 in 6.2 mi NW 11.5 mph - N/A   Partly Cloudy
2:00 PM 93.2 °F 105.0 °F 75.2 °F 56% 29.71 in 6.2 mi Calm Calm - N/A   Partly Cloudy
3:00 PM 93 °F - 77 °F 50% 29.73 in 19 mi South 21.9 mph - -   Partly Cloudy
3:00 PM 93.2 °F 107.2 °F 77.0 °F 59% 29.71 in 6.2 mi South 10.4 mph - N/A   Partly Cloudy
4:00 PM 91.4 °F 102.5 °F 75.2 °F 59% 29.71 in 6.2 mi ENE 11.5 mph - N/A   Partly Cloudy
5:00 PM 89.6 °F 102.2 °F 77.0 °F 66% 29.71 in 6.2 mi NNE 13.8 mph - N/A   Partly Cloudy
6:00 PM 87 °F - 76 °F 64% 29.72 in 19 mi NE 15.0 mph - -   Scattered Clouds
6:00 PM 86.0 °F 96.9 °F 77.0 °F 74% 29.71 in 6.2 mi NE 15.0 mph - N/A   Partly Cloudy
7:00 PM 84.2 °F 94.1 °F 77.0 °F 79% 29.74 in 6.2 mi NE 11.5 mph - N/A   Partly Cloudy
8:00 PM 82.4 °F 90.9 °F 77.0 °F 84% 29.77 in 6.2 mi NNE 9.2 mph - N/A   Partly Cloudy
9:00 PM 83 °F - 78 °F 82% 29.82 in 19 mi NNE 5.8 mph - -   Scattered Clouds
10:00 PM 82.4 °F 92.4 °F 78.8 °F 89% 29.80 in 6.2 mi NNE 5.8 mph - N/A   Partly Cloudy
11:00 PM 82.4 °F 92.4 °F 78.8 °F 89% 29.83 in 6.2 mi North 5.8 mph - N/A   Partly Cloudy